Weather History for Ponca City, OK

Change the Weather History Date:

Monday, October 1, 2012

  Actual Average Record
Temperature  
Mean Temperature 66 °F -  
Max Temperature 82 °F 82 °F 96 °F (2006)
Min Temperature 51 °F 55 °F 34 °F (1958)
Cooling Degree Days 2    
Growing Degree Days 16 (Base 50)    
Moisture  
Dew Point 48 °F    
Average Humidity 61    
Maximum Humidity 89    
Minimum Humidity 27    
Precipitation  
Precipitation 0.00 in - - ()
Sea Level Pressure  
Sea Level Pressure 29.88 in    
Wind  
Wind Speed 8 mph (North)    
Max Wind Speed 28 mph    
Max Gust Speed 36 mph    
Visibility 10 miles    
Events      
Averages and records for this station are not official NWS values.
T = Trace of Precipitation, MM = Missing Value Source: NWS Daily Summary

Daily Weather History Graph

Daily Weather History Graph

Search for Another Location

Airport:

Trip Planner

Search our weather history database for the weather conditions in past years. The results will help you decide how hot, cold, wet, or windy it might be!

Date:

Astronomy

Oct. 01, 2012 Rise Set
Actual Time 7:24 AM CDT 7:11 PM CDT
Civil Twilight 6:58 AM CDT 7:36 PM CDT
Nautical Twilight 6:28 AM CDT 8:06 PM CDT
Astronomical Twilight 5:58 AM CDT 8:36 PM CDT
Moon 7:53 PM CDT (10/1) 8:51 AM CDT (10/1)
Length of Visible Light 12h 38m
Length of Day
11h 46m
Full, 98% of the Moon is Illuminated
Oct 1
Full
Oct 8
Last Quarter
Oct 15
New
Oct 21
First Quarter
Oct 29
Full

Hourly Weather History & Observations

Time (CDT) Temp. Dew Point Humidity Pressure Visibility Wind Dir Wind Speed Gust Speed Precip Events Conditions
12:53 AM 53.1 °F 48.9 °F 86% 29.88 in 10.0 mi North 3.5 mph - N/A   Clear
1:53 AM 54.0 °F 48.9 °F 83% 29.87 in 10.0 mi Calm Calm - N/A   Clear
2:53 AM 51.1 °F 48.0 °F 89% 29.86 in 10.0 mi NNW 3.5 mph - N/A   Clear
3:53 AM 52.0 °F 48.0 °F 86% 29.86 in 10.0 mi Calm Calm - N/A   Clear
4:53 AM 51.1 °F 46.9 °F 86% 29.86 in 10.0 mi NNE 3.5 mph - N/A   Clear
5:53 AM 52.0 °F 46.9 °F 83% 29.87 in 10.0 mi Calm Calm - N/A   Clear
6:53 AM 52.0 °F 46.9 °F 83% 29.87 in 10.0 mi North 3.5 mph - N/A   Clear
7:53 AM 51.1 °F 46.9 °F 86% 29.89 in 10.0 mi North 4.6 mph - N/A   Clear
8:53 AM 57.2 °F 50.0 °F 77% 29.90 in 10.0 mi North 5.8 mph - N/A   Clear
9:53 AM 68.0 °F 48.9 °F 50% 29.89 in 10.0 mi North 10.4 mph 25.3 mph N/A   Clear
10:53 AM 72.0 °F 46.9 °F 41% 29.90 in 10.0 mi North 18.4 mph 23.0 mph N/A   Clear
11:53 AM 78.1 °F 45.0 °F 31% 29.89 in 10.0 mi NNW 16.1 mph 28.8 mph N/A   Clear
12:53 PM 81.0 °F 44.1 °F 27% 29.87 in 10.0 mi North 18.4 mph 24.2 mph N/A   Clear
1:53 PM 82.0 °F 45.0 °F 27% 29.85 in 10.0 mi North 15.0 mph 23.0 mph N/A   Clear
2:53 PM 80.1 °F 43.0 °F 27% 29.83 in 10.0 mi North 15.0 mph 31.1 mph N/A   Clear
3:53 PM 75.0 °F 50.0 °F 41% 29.85 in 8.0 mi North 27.6 mph 35.7 mph N/A   Clear
4:53 PM 69.8 °F 51.8 °F 53% 29.89 in 10.0 mi NNW 19.6 mph 28.8 mph N/A   Overcast
5:53 PM 68.0 °F 54.0 °F 61% 29.88 in 10.0 mi NNW 12.7 mph 24.2 mph N/A   Overcast
6:53 PM 66.9 °F 54.0 °F 63% 29.89 in 10.0 mi North 17.3 mph 25.3 mph N/A   Overcast
7:53 PM 66.0 °F 50.0 °F 56% 29.90 in 10.0 mi North 17.3 mph 26.5 mph N/A   Mostly Cloudy
8:53 PM 64.0 °F 50.0 °F 60% 29.91 in 10.0 mi North 15.0 mph - N/A   Scattered Clouds
9:53 PM 62.6 °F 48.2 °F 59% 29.94 in 10.0 mi North 11.5 mph - N/A   Clear
10:53 PM 63.0 °F 48.0 °F 58% 29.92 in 10.0 mi North 12.7 mph - N/A   Clear
11:53 PM 62.1 °F 46.9 °F 58% 29.92 in 10.0 mi North 8.1 mph - N/A   Clear